Marcos A. Gelabert International Airport
MPMG : now visible

Airfield :











YOU CAN JOIN US ON...

 
LOGIN :

Register | Disclaimer

   EN    FR    IT 

 









Legend :    VFR   Marginal VFR   IFR   Intensive IFR   Very Intensive IFR
Visi :
Ceiling :
>= 8 km
>= 3000ft
5 to 8 km
1000 to 3000 ft
1500m to 5 km
500 to 1000 ft
800 to 1500m
200 to 500 ft
< 800m
< 200 ft
Symbols :   Thunderstorms  Fog  Heavy snow  Heavy precipitations  Wind > 20 kt






- Airport Elevation : 31 ft
- IATA code : PAC


MPMG - Marcos A. Gelabert International

CURRENT METAR :
  • 260200Z AUTO 29003KT 260V330 //// R01///// // OVC013/// 27/25 Q1013

EXPIRED METARs :
  • 260100Z AUTO 35003KT 320V020 //// R01///// // SCT018/// BKN030/// BKN055/// 26/25 Q1012
  • 260000Z AUTO VRB01KT //// R01///// // FEW017/// BKN026/// OVC052/// 27/24 Q1012

TAF TAF MPMG
Valid from the 25 at 18:00 until the 26 at 06:00 UTC


251700Z 2518/2606 35006KT 9999 SCT018 SCT090
PROB30 2519/2523 16008KT 8000 TSRA SCT016CB BKN070
MPZL FIR / North America



MET'MAP, your aeronautical weather chart ! - Copyright ORBIFLY December 2007 - Disclaimer

ORBIFLY MET'MAP TEAM :

Programming & Development : Alexandra Zaïnal
Concept & original design : Baudouin d'Aumeries
Assistance for programming : Marc-Olivier Méhu
Technical & hardware support : Manuel Goepfert

Contact : metmap@orbifly.com




SOURCES & CREDITS :

   NOAA       Earth
Advisory